Time,TemperatureF,DewpointF,PressureIn,WindDirection,WindDirectionDegrees,WindSpeedMPH,WindSpeedGustMPH,Humidity,HourlyPrecipIn,Conditions,Clouds,dailyrainin,SoftwareType,DateUTC
2013-04-12 00:00:00,60.3,57.3,28.45,NE,45,6.9,6.9,90,0.00,CLR,SKC,0.01,WeatherDisplay:10.37,2013-04-12 04:00:00,
2013-04-12 00:01:00,60.3,57.3,28.45,North,0,5.8,5.8,90,0.00,RA,SKC,0.00,WeatherDisplay:10.37,2013-04-12 04:01:00,
2013-04-12 00:04:00,60.3,57.3,28.44,North,0,5.8,5.8,90,0.00,RA,SKC,0.00,WeatherDisplay:10.37,2013-04-12 04:04:00,
2013-04-12 00:09:00,60.6,57.7,28.45,NE,45,5.8,5.8,90,0.00,RA,SKC,0.00,WeatherDisplay:10.37,2013-04-12 04:09:00,
2013-04-12 00:15:00,61.0,58.0,28.44,NE,45,4.6,4.6,90,0.00,CLR,SKC,0.00,WeatherDisplay:10.37,2013-04-12 04:15:00,
2013-04-12 00:20:00,61.7,58.7,28.44,NE,45,3.5,3.5,90,0.00,CLR,SKC,0.00,WeatherDisplay:10.37,2013-04-12 04:20:00,
2013-04-12 00:25:00,62.2,58.6,28.43,NE,45,3.5,3.5,88,0.00,CLR,SKC,0.00,WeatherDisplay:10.37,2013-04-12 04:25:00,
2013-04-12 00:30:00,62.8,58.9,28.43,NE,45,8.1,8.1,87,0.00,CLR,SKC,0.00,WeatherDisplay:10.37,2013-04-12 04:30:00,
2013-04-12 00:35:00,63.5,58.9,28.43,ENE,68,6.9,6.9,85,0.00,CLR,SKC,0.00,WeatherDisplay:10.37,2013-04-12 04:35:00,
2013-04-12 00:40:00,63.9,58.6,28.43,NE,45,8.1,8.1,83,0.00,CLR,SKC,0.00,WeatherDisplay:10.37,2013-04-12 04:40:00,
2013-04-12 00:45:00,64.0,58.4,28.43,NE,45,6.9,6.9,82,0.00,CLR,SKC,0.00,WeatherDisplay:10.37,2013-04-12 04:45:00,
2013-04-12 00:50:00,64.4,58.4,28.43,NE,45,8.1,8.1,81,0.00,CLR,SKC,0.00,WeatherDisplay:10.37,2013-04-12 04:50:00,
2013-04-12 00:55:00,64.6,58.6,28.43,WSW,248,5.8,5.8,81,0.00,CLR,SKC,0.00,WeatherDisplay:10.37,2013-04-12 04:55:00,
2013-04-12 01:00:00,64.6,58.3,28.42,North,0,9.2,9.2,80,0.00,CLR,SKC,0.00,WeatherDisplay:10.37,2013-04-12 05:00:00,
2013-04-12 01:05:00,64.6,58.3,28.42,North,0,4.6,4.6,80,0.00,CLR,SKC,0.00,WeatherDisplay:10.37,2013-04-12 05:05:00,
2013-04-12 01:10:00,64.6,58.3,28.42,NE,45,12.7,12.7,80,0.00,CLR,SKC,0.00,WeatherDisplay:10.37,2013-04-12 05:10:00,
2013-04-12 01:15:00,64.6,58.3,28.42,East,90,4.6,4.6,80,0.00,CLR,SKC,0.00,WeatherDisplay:10.37,2013-04-12 05:15:00,
2013-04-12 01:20:00,64.6,58.3,28.42,East,90,6.9,6.9,80,0.00,CLR,SKC,0.00,WeatherDisplay:10.37,2013-04-12 05:20:00,
2013-04-12 01:25:00,64.6,58.3,28.42,NE,45,8.1,8.1,80,0.00,CLR,SKC,0.00,WeatherDisplay:10.37,2013-04-12 05:25:00,
2013-04-12 01:30:00,64.6,58.3,28.41,ENE,68,10.4,10.4,80,0.00,CLR,SKC,0.00,WeatherDisplay:10.37,2013-04-12 05:30:00,
2013-04-12 01:35:00,64.6,58.3,28.42,NE,45,4.6,4.6,80,0.00,CLR,SKC,0.00,WeatherDisplay:10.37,2013-04-12 05:35:00,
2013-04-12 01:40:00,64.8,58.4,28.41,NE,45,5.8,5.8,80,0.00,CLR,SKC,0.00,WeatherDisplay:10.37,2013-04-12 05:40:00,
2013-04-12 01:45:00,64.6,58.3,28.42,NE,45,6.9,6.9,80,0.00,CLR,SKC,0.00,WeatherDisplay:10.37,2013-04-12 05:45:00,
2013-04-12 01:50:00,64.6,57.9,28.41,NE,45,11.5,11.5,79,0.00,CLR,SKC,0.00,WeatherDisplay:10.37,2013-04-12 05:50:00,
2013-04-12 01:55:00,64.6,57.9,28.41,NE,45,8.1,8.1,79,0.00,CLR,SKC,0.00,WeatherDisplay:10.37,2013-04-12 05:55:00,
2013-04-12 02:00:00,64.6,57.9,28.41,East,90,10.4,10.4,79,0.00,CLR,SKC,0.00,WeatherDisplay:10.37,2013-04-12 06:00:00,
2013-04-12 02:05:00,64.6,57.9,28.40,East,90,6.9,6.9,79,0.00,CLR,SKC,0.00,WeatherDisplay:10.37,2013-04-12 06:05:00,
2013-04-12 02:10:00,64.6,57.9,28.41,NE,45,5.8,5.8,79,0.00,CLR,SKC,0.00,WeatherDisplay:10.37,2013-04-12 06:10:00,
2013-04-12 02:15:00,64.4,58.1,28.40,North,0,5.8,5.8,80,0.00,CLR,SKC,0.00,WeatherDisplay:10.37,2013-04-12 06:15:00,
2013-04-12 02:20:00,64.4,57.7,28.41,NE,45,5.8,5.8,79,0.00,CLR,SKC,0.00,WeatherDisplay:10.37,2013-04-12 06:20:00,
2013-04-12 02:25:00,64.4,57.7,28.40,NE,45,5.8,5.8,79,0.00,CLR,SKC,0.00,WeatherDisplay:10.37,2013-04-12 06:25:00,
2013-04-12 02:30:00,64.2,57.6,28.39,NE,45,3.5,3.5,79,0.00,CLR,SKC,0.00,WeatherDisplay:10.37,2013-04-12 06:30:00,
2013-04-12 02:35:00,64.2,57.9,28.39,ENE,68,5.8,5.8,80,0.00,CLR,SKC,0.00,WeatherDisplay:10.37,2013-04-12 06:35:00,
2013-04-12 02:40:00,64.2,57.9,28.39,NE,45,8.1,8.1,80,0.00,CLR,SKC,0.00,WeatherDisplay:10.37,2013-04-12 06:40:00,
2013-04-12 02:45:00,64.0,57.7,28.39,NE,45,5.8,5.8,80,0.00,CLR,SKC,0.00,WeatherDisplay:10.37,2013-04-12 06:45:00,
2013-04-12 02:50:00,64.0,57.7,28.39,ENE,68,10.4,10.4,80,0.00,CLR,SKC,0.00,WeatherDisplay:10.37,2013-04-12 06:50:00,
2013-04-12 02:55:00,63.9,57.9,28.39,ENE,68,5.8,5.8,81,0.00,CLR,SKC,0.00,WeatherDisplay:10.37,2013-04-12 06:55:00,
2013-04-12 03:00:00,63.5,57.9,28.39,NE,45,8.1,8.1,82,0.00,CLR,SKC,0.00,WeatherDisplay:10.37,2013-04-12 07:00:00,
2013-04-12 03:05:00,63.5,57.9,28.38,NE,45,8.1,8.1,82,0.00,CLR,SKC,0.00,WeatherDisplay:10.37,2013-04-12 07:05:00,
2013-04-12 03:10:00,63.5,58.2,28.39,East,90,8.1,8.1,83,0.00,CLR,SKC,0.00,WeatherDisplay:10.37,2013-04-12 07:10:00,
2013-04-12 03:15:00,63.3,58.4,28.39,NE,45,9.2,9.2,84,0.00,CLR,SKC,0.00,WeatherDisplay:10.37,2013-04-12 07:15:00,
2013-04-12 03:20:00,63.1,58.6,28.39,East,90,8.1,8.1,85,0.00,CLR,SKC,0.00,WeatherDisplay:10.37,2013-04-12 07:20:00,
2013-04-12 03:25:00,62.8,58.9,28.38,NE,45,5.8,5.8,87,0.00,CLR,SKC,0.01,WeatherDisplay:10.37,2013-04-12 07:25:00,
2013-04-12 03:30:00,62.6,59.3,28.39,East,90,10.4,10.4,89,0.01,RA,SKC,0.01,WeatherDisplay:10.37,2013-04-12 07:30:00,
2013-04-12 03:35:00,62.2,59.6,28.39,NE,45,6.9,6.9,91,0.01,RA,SKC,0.01,WeatherDisplay:10.37,2013-04-12 07:35:00,
2013-04-12 03:40:00,61.9,59.8,28.39,NE,45,4.6,4.6,93,0.01,CLR,SKC,0.01,WeatherDisplay:10.37,2013-04-12 07:40:00,
2013-04-12 03:45:00,61.5,60.7,28.39,East,90,6.9,6.9,97,0.05,RA,SKC,0.05,WeatherDisplay:10.37,2013-04-12 07:45:00,
2013-04-12 03:50:00,61.0,61.0,28.39,East,90,5.8,5.8,100,0.06,RA,SKC,0.06,WeatherDisplay:10.37,2013-04-12 07:50:00,
2013-04-12 03:55:00,60.8,60.8,28.39,East,90,10.4,10.4,100,0.07,RA,SKC,0.07,WeatherDisplay:10.37,2013-04-12 07:55:00,
2013-04-12 04:00:00,60.4,60.4,28.39,NE,45,3.5,3.5,100,0.07,RA,SKC,0.07,WeatherDisplay:10.37,2013-04-12 08:00:00,
2013-04-12 04:05:00,60.4,60.4,28.39,NE,45,3.5,3.5,100,0.07,CLR,SKC,0.07,WeatherDisplay:10.37,2013-04-12 08:05:00,
2013-04-12 04:10:00,60.1,60.1,28.39,SE,135,2.3,0.0,100,0.09,RA,SKC,0.09,WeatherDisplay:10.37,2013-04-12 08:10:00,
2013-04-12 04:15:00,60.1,60.1,28.39,South,180,1.2,0.0,100,0.09,RA,SKC,0.09,WeatherDisplay:10.37,2013-04-12 08:15:00,
2013-04-12 04:20:00,60.1,60.1,28.38,South,180,2.3,0.0,100,0.11,RA,SKC,0.11,WeatherDisplay:10.37,2013-04-12 08:20:00,
2013-04-12 04:25:00,59.9,59.9,28.38,South,180,0.0,0.0,100,0.11,RA,SKC,0.11,WeatherDisplay:10.37,2013-04-12 08:25:00,
2013-04-12 04:30:00,59.9,59.9,28.38,South,180,0.0,0.0,100,0.11,RA,SKC,0.12,WeatherDisplay:10.37,2013-04-12 08:30:00,
2013-04-12 04:35:00,59.7,59.7,28.38,South,180,4.5,4.5,100,0.13,RA,SKC,0.14,WeatherDisplay:10.37,2013-04-12 08:35:00,
2013-04-12 04:40:00,59.7,59.7,28.39,South,180,3.5,3.5,100,0.17,RA,SKC,0.18,WeatherDisplay:10.37,2013-04-12 08:40:00,
2013-04-12 04:45:00,59.5,59.5,28.38,South,180,1.2,0.0,100,0.17,RA,SKC,0.21,WeatherDisplay:10.37,2013-04-12 08:45:00,
2013-04-12 04:50:00,59.5,59.5,28.39,SE,135,1.2,0.0,100,0.17,RA,SKC,0.22,WeatherDisplay:10.37,2013-04-12 08:50:00,
2013-04-12 04:55:00,59.5,59.5,28.36,NE,45,2.3,0.0,100,0.18,RA,SKC,0.25,WeatherDisplay:10.37,2013-04-12 08:55:00,
2013-04-12 05:00:00,59.5,59.5,28.36,NE,45,2.3,0.0,100,0.18,RA,SKC,0.25,WeatherDisplay:10.37,2013-04-12 09:00:00,
2013-04-12 05:05:00,59.5,59.5,28.37,NE,45,0.0,0.0,100,0.18,,SKC,0.25,WeatherDisplay:10.37,2013-04-12 09:05:00,
2013-04-12 05:10:00,59.5,59.5,28.38,East,90,1.2,0.0,100,0.17,RA,SKC,0.26,WeatherDisplay:10.37,2013-04-12 09:10:00,
2013-04-12 05:15:00,59.5,59.5,28.39,SE,135,1.2,0.0,100,0.17,RA,SKC,0.26,WeatherDisplay:10.37,2013-04-12 09:15:00,
2013-04-12 05:20:00,59.5,59.5,28.39,East,90,2.3,0.0,100,0.15,,SKC,0.26,WeatherDisplay:10.37,2013-04-12 09:20:00,
2013-04-12 05:25:00,59.5,59.5,28.39,SE,135,1.2,1.2,100,0.17,RA,SKC,0.27,WeatherDisplay:10.37,2013-04-12 09:25:00,
2013-04-12 05:30:00,59.5,59.5,28.39,East,90,3.5,0.0,100,0.15,RA,SKC,0.27,WeatherDisplay:10.37,2013-04-12 09:30:00,
2013-04-12 05:35:00,59.7,59.7,28.39,NE,45,2.3,2.3,100,0.14,RA,SKC,0.28,WeatherDisplay:10.37,2013-04-12 09:35:00,
2013-04-12 05:40:00,59.7,59.7,28.39,East,90,3.5,3.5,100,0.11,RA,SKC,0.28,WeatherDisplay:10.37,2013-04-12 09:40:00,
2013-04-12 05:45:00,59.7,59.7,28.39,East,90,3.5,3.5,100,0.09,RA,SKC,0.31,WeatherDisplay:10.37,2013-04-12 09:45:00,
2013-04-12 05:50:00,59.7,59.7,28.39,East,90,3.5,3.5,100,0.08,RA,SKC,0.31,WeatherDisplay:10.37,2013-04-12 09:50:00,
2013-04-12 05:55:00,59.9,59.9,28.38,East,90,4.6,4.6,100,0.07,RA,SKC,0.32,WeatherDisplay:10.37,2013-04-12 09:55:00,
2013-04-12 06:00:00,59.9,59.9,28.38,East,90,3.5,3.5,100,0.07,RA,SKC,0.32,WeatherDisplay:10.37,2013-04-12 10:00:00,
2013-04-12 06:05:00,59.9,59.9,28.38,East,90,3.5,3.5,100,0.07,CLR,SKC,0.32,WeatherDisplay:10.37,2013-04-12 10:05:00,
2013-04-12 06:10:00,59.9,59.9,28.38,East,90,5.8,5.8,100,0.06,CLR,SKC,0.32,WeatherDisplay:10.37,2013-04-12 10:10:00,
2013-04-12 06:15:00,60.1,60.1,28.38,East,90,6.9,6.9,100,0.07,RA,SKC,0.33,WeatherDisplay:10.37,2013-04-12 10:15:00,
2013-04-12 06:20:00,60.1,60.1,28.38,South,180,5.8,5.8,100,0.07,RA,SKC,0.33,WeatherDisplay:10.37,2013-04-12 10:20:00,
2013-04-12 06:25:00,60.1,60.1,28.38,SE,135,8.1,8.1,100,0.06,,SKC,0.33,WeatherDisplay:10.37,2013-04-12 10:25:00,
2013-04-12 06:30:00,60.3,60.3,28.38,ESE,112,6.9,6.9,100,0.06,CLR,SKC,0.34,WeatherDisplay:10.37,2013-04-12 10:30:00,
2013-04-12 06:35:00,60.3,60.3,28.38,East,90,8.1,8.1,100,0.06,RA,SKC,0.34,WeatherDisplay:10.37,2013-04-12 10:35:00,
2013-04-12 06:40:00,60.1,60.1,28.37,NW,315,11.5,11.5,100,0.06,RA,SKC,0.34,WeatherDisplay:10.37,2013-04-12 10:40:00,
2013-04-12 06:45:00,60.1,60.1,28.36,West,270,8.1,8.1,100,0.05,RA,SKC,0.35,WeatherDisplay:10.37,2013-04-12 10:45:00,
2013-04-12 06:50:00,60.1,60.1,28.36,SE,135,6.9,6.9,100,0.05,RA,SKC,0.35,WeatherDisplay:10.37,2013-04-12 10:50:00,
2013-04-12 06:55:00,59.9,59.9,28.36,East,90,9.8,9.8,100,0.04,,SKC,0.35,WeatherDisplay:10.37,2013-04-12 10:55:00,
2013-04-12 07:00:00,59.9,59.9,28.36,East,90,4.6,4.6,100,0.04,CLR,SKC,0.35,WeatherDisplay:10.37,2013-04-12 11:00:00,
2013-04-12 07:05:00,59.7,59.7,28.36,SE,135,8.1,8.1,100,0.05,RA,SKC,0.37,WeatherDisplay:10.37,2013-04-12 11:05:00,
2013-04-12 07:10:00,59.7,59.7,28.36,NE,45,6.9,6.9,100,0.05,RA,SKC,0.37,WeatherDisplay:10.37,2013-04-12 11:10:00,
2013-04-12 07:15:00,59.5,59.5,28.36,East,90,6.9,6.9,100,0.04,,SKC,0.37,WeatherDisplay:10.37,2013-04-12 11:15:00,
2013-04-12 07:20:00,59.5,59.5,28.36,East,90,6.9,6.9,100,0.05,RA,SKC,0.38,WeatherDisplay:10.37,2013-04-12 11:20:00,
2013-04-12 07:25:00,59.5,59.5,28.36,SE,135,4.6,4.6,100,0.05,RA,SKC,0.38,WeatherDisplay:10.37,2013-04-12 11:25:00,
2013-04-12 07:30:00,59.4,59.4,28.36,SE,135,4.6,4.6,100,0.05,,SKC,0.38,WeatherDisplay:10.37,2013-04-12 11:30:00,
2013-04-12 07:35:00,59.2,59.2,28.36,SE,135,5.8,5.8,100,0.04,CLR,SKC,0.38,WeatherDisplay:10.37,2013-04-12 11:35:00,
2013-04-12 07:40:00,59.2,59.2,28.36,East,90,1.2,0.0,100,0.04,CLR,SKC,0.38,WeatherDisplay:10.37,2013-04-12 11:40:00,
2013-04-12 07:45:00,59.0,59.0,28.36,ESE,112,4.6,4.6,100,0.04,RA,SKC,0.39,WeatherDisplay:10.37,2013-04-12 11:45:00,
2013-04-12 07:50:00,59.0,59.0,28.36,East,90,3.5,0.0,100,0.04,RA,SKC,0.39,WeatherDisplay:10.37,2013-04-12 11:50:00,
2013-04-12 07:55:00,59.0,59.0,28.36,East,90,2.3,0.0,100,0.04,CLR,SKC,0.39,WeatherDisplay:10.37,2013-04-12 11:55:00,
2013-04-12 08:00:00,58.8,58.8,28.36,SE,135,2.3,2.3,100,0.04,CLR,SKC,0.39,WeatherDisplay:10.37,2013-04-12 12:00:00,
2013-04-12 08:05:00,58.8,58.8,28.36,East,90,3.5,3.5,100,0.02,CLR,SKC,0.39,WeatherDisplay:10.37,2013-04-12 12:05:00,
2013-04-12 08:10:00,58.8,58.8,28.36,East,90,3.5,3.5,100,0.02,CLR,SKC,0.39,WeatherDisplay:10.37,2013-04-12 12:10:00,
2013-04-12 08:15:00,59.0,59.0,28.35,East,90,4.6,4.6,100,0.02,CLR,SKC,0.39,WeatherDisplay:10.37,2013-04-12 12:15:00,
2013-04-12 08:20:00,59.0,59.0,28.36,East,90,3.5,3.5,100,0.01,CLR,SKC,0.39,WeatherDisplay:10.37,2013-04-12 12:20:00,
2013-04-12 08:25:00,59.0,59.0,28.36,NE,45,5.8,5.8,100,0.01,CLR,SKC,0.39,WeatherDisplay:10.37,2013-04-12 12:25:00,
2013-04-12 08:30:00,59.0,59.0,28.36,East,90,5.8,5.8,100,0.01,CLR,SKC,0.39,WeatherDisplay:10.37,2013-04-12 12:30:00,
2013-04-12 08:35:00,59.0,59.0,28.36,NE,45,8.1,8.1,100,0.01,CLR,SKC,0.39,WeatherDisplay:10.37,2013-04-12 12:35:00,
2013-04-12 08:40:00,59.2,59.2,28.36,East,90,8.1,8.1,100,0.01,CLR,SKC,0.39,WeatherDisplay:10.37,2013-04-12 12:40:00,
2013-04-12 08:45:00,59.4,59.4,28.36,SE,135,9.2,9.2,100,0.00,CLR,SKC,0.39,WeatherDisplay:10.37,2013-04-12 12:45:00,
2013-04-12 08:50:00,59.7,59.7,28.36,SE,135,9.2,9.2,100,0.00,CLR,SKC,0.39,WeatherDisplay:10.37,2013-04-12 12:50:00,
2013-04-12 08:55:00,59.9,59.9,28.36,West,270,6.9,6.9,100,0.00,CLR,SKC,0.39,WeatherDisplay:10.37,2013-04-12 12:55:00,
2013-04-12 09:01:00,60.1,60.1,28.36,East,90,9.2,9.2,100,0.00,CLR,SKC,0.39,WeatherDisplay:10.37,2013-04-12 13:01:00,
2013-04-12 09:06:00,60.3,60.3,28.36,SE,135,8.1,8.1,100,0.00,CLR,SKC,0.39,WeatherDisplay:10.37,2013-04-12 13:06:00,
2013-04-12 09:11:00,60.6,60.6,28.36,SE,135,10.4,10.4,100,0.00,CLR,SKC,0.39,WeatherDisplay:10.37,2013-04-12 13:11:00,
2013-04-12 09:16:00,60.8,60.8,28.36,SE,135,6.9,6.9,100,0.00,CLR,SKC,0.39,WeatherDisplay:10.37,2013-04-12 13:16:00,
2013-04-12 09:21:00,61.2,61.2,28.36,West,270,9.2,9.2,100,0.00,CLR,SKC,0.39,WeatherDisplay:10.37,2013-04-12 13:21:00,
2013-04-12 09:26:00,61.5,61.5,28.37,SE,135,8.1,8.1,100,0.01,RA,SKC,0.40,WeatherDisplay:10.37,2013-04-12 13:26:00,
2013-04-12 09:31:00,61.9,61.0,28.37,SE,135,13.8,13.8,97,0.01,RA,SKC,0.40,WeatherDisplay:10.37,2013-04-12 13:31:00,
2013-04-12 09:36:00,62.4,58.2,28.36,East,90,10.4,10.4,86,0.01,CLR,SKC,0.40,WeatherDisplay:10.37,2013-04-12 13:36:00,
2013-04-12 09:41:00,62.8,56.9,28.37,SE,135,15.0,15.0,81,0.01,CLR,SKC,0.40,WeatherDisplay:10.37,2013-04-12 13:41:00,
2013-04-12 09:46:00,63.1,55.4,28.37,East,90,11.5,11.5,76,0.01,CLR,SKC,0.40,WeatherDisplay:10.37,2013-04-12 13:46:00,
2013-04-12 09:51:00,63.1,54.0,28.37,North,0,12.7,12.7,72,0.01,CLR,SKC,0.40,WeatherDisplay:10.37,2013-04-12 13:51:00,
2013-04-12 09:56:00,63.3,55.3,28.37,NE,45,8.1,8.1,75,0.01,CLR,SKC,0.40,WeatherDisplay:10.37,2013-04-12 13:56:00,
2013-04-12 10:01:00,63.3,55.6,28.38,East,90,8.1,8.1,76,0.01,CLR,SKC,0.40,WeatherDisplay:10.37,2013-04-12 14:01:00,
2013-04-12 10:06:00,63.3,54.9,28.38,SE,135,11.5,11.5,74,0.01,CLR,SKC,0.40,WeatherDisplay:10.37,2013-04-12 14:06:00,
2013-04-12 10:11:00,63.5,54.7,28.38,South,180,9.2,9.2,73,0.01,CLR,SKC,0.40,WeatherDisplay:10.37,2013-04-12 14:11:00,
2013-04-12 10:16:00,63.7,53.3,28.38,East,90,10.4,10.4,69,0.01,CLR,SKC,0.40,WeatherDisplay:10.37,2013-04-12 14:16:00,
2013-04-12 10:21:00,64.4,52.8,28.38,South,180,12.7,12.7,66,0.01,CLR,SKC,0.40,WeatherDisplay:10.37,2013-04-12 14:21:00,
2013-04-12 10:26:00,64.9,50.7,28.38,South,180,15.0,15.0,60,0.00,CLR,SKC,0.40,WeatherDisplay:10.37,2013-04-12 14:26:00,
2013-04-12 10:31:00,65.8,51.6,28.38,SE,135,9.2,9.2,60,0.00,CLR,SKC,0.40,WeatherDisplay:10.37,2013-04-12 14:31:00,
2013-04-12 10:36:00,67.3,48.5,28.39,South,180,11.5,11.5,51,0.00,CLR,SKC,0.40,WeatherDisplay:10.37,2013-04-12 14:36:00,
2013-04-12 10:41:00,66.7,48.5,28.39,SE,135,12.7,12.7,52,0.00,CLR,SKC,0.40,WeatherDisplay:10.37,2013-04-12 14:41:00,
2013-04-12 10:46:00,66.0,50.3,28.40,West,270,5.8,5.8,57,0.00,CLR,SKC,0.40,WeatherDisplay:10.37,2013-04-12 14:46:00,
2013-04-12 10:51:00,64.2,52.6,28.40,East,90,10.4,10.4,66,0.00,CLR,SKC,0.41,WeatherDisplay:10.37,2013-04-12 14:51:00,
2013-04-12 10:56:00,62.8,55.8,28.40,South,180,9.2,9.2,78,0.01,RA,SKC,0.43,WeatherDisplay:10.37,2013-04-12 14:56:00,
2013-04-12 11:01:00,61.7,59.0,28.41,NE,45,8.1,8.1,91,0.02,RA,SKC,0.43,WeatherDisplay:10.37,2013-04-12 15:01:00,
2013-04-12 11:06:00,61.7,61.7,28.41,SE,135,5.8,5.8,100,0.02,RA,SKC,0.43,WeatherDisplay:10.37,2013-04-12 15:06:00,
2013-04-12 11:11:00,62.6,62.6,28.41,SE,135,10.4,10.4,100,0.02,CLR,SKC,0.43,WeatherDisplay:10.37,2013-04-12 15:11:00,
2013-04-12 11:16:00,63.5,63.5,28.41,South,180,8.1,8.1,100,0.02,CLR,SKC,0.43,WeatherDisplay:10.37,2013-04-12 15:16:00,
2013-04-12 11:21:00,64.6,60.6,28.41,South,180,17.3,17.3,87,0.02,CLR,SKC,0.43,WeatherDisplay:10.37,2013-04-12 15:21:00,
2013-04-12 11:26:00,64.4,57.0,28.41,West,270,12.7,12.7,77,0.02,CLR,SKC,0.43,WeatherDisplay:10.37,2013-04-12 15:26:00,
2013-04-12 11:31:00,63.9,53.9,28.41,East,90,15.0,15.0,70,0.02,CLR,SKC,0.43,WeatherDisplay:10.37,2013-04-12 15:31:00,
2013-04-12 11:36:00,64.8,51.9,28.42,South,180,12.7,12.7,63,0.02,CLR,SKC,0.43,WeatherDisplay:10.37,2013-04-12 15:36:00,
2013-04-12 11:41:00,64.6,50.4,28.42,South,180,12.7,12.7,60,0.02,CLR,SKC,0.43,WeatherDisplay:10.37,2013-04-12 15:41:00,
2013-04-12 11:46:00,64.4,50.7,28.42,NW,315,18.4,18.4,61,0.02,CLR,SKC,0.43,WeatherDisplay:10.37,2013-04-12 15:46:00,
2013-04-12 11:51:00,65.1,50.9,28.41,South,180,16.1,16.1,60,0.02,CLR,SKC,0.43,WeatherDisplay:10.37,2013-04-12 15:51:00,
2013-04-12 11:56:00,66.4,50.7,28.42,West,270,8.1,8.1,57,0.01,CLR,SKC,0.43,WeatherDisplay:10.37,2013-04-12 15:56:00,
2013-04-12 12:01:00,65.5,50.3,28.42,SE,135,10.4,10.4,58,0.00,CLR,SKC,0.43,WeatherDisplay:10.37,2013-04-12 16:01:00,
2013-04-12 12:06:00,64.9,50.7,28.43,West,270,12.7,12.7,60,0.00,CLR,SKC,0.43,WeatherDisplay:10.37,2013-04-12 16:06:00,
2013-04-12 12:11:00,63.7,50.8,28.43,SSE,158,8.1,9.2,63,0.00,CLR,SKC,0.43,WeatherDisplay:10.37,2013-04-12 16:11:00,
2013-04-12 12:16:00,62.8,52.1,28.43,SE,135,11.5,11.5,68,0.00,CLR,SKC,0.43,WeatherDisplay:10.37,2013-04-12 16:16:00,
2013-04-12 12:21:00,62.1,52.2,28.43,SE,135,6.9,6.9,70,0.00,CLR,SKC,0.43,WeatherDisplay:10.37,2013-04-12 16:21:00,
2013-04-12 12:26:00,61.2,52.1,28.44,South,180,18.4,18.4,72,0.00,CLR,SKC,0.43,WeatherDisplay:10.37,2013-04-12 16:26:00,
2013-04-12 12:31:00,60.4,52.1,28.45,West,270,9.2,9.2,74,0.00,CLR,SKC,0.43,WeatherDisplay:10.37,2013-04-12 16:31:00,
2013-04-12 12:36:00,60.1,52.5,28.45,NW,315,9.2,9.2,76,0.00,CLR,SKC,0.43,WeatherDisplay:10.37,2013-04-12 16:36:00,
2013-04-12 12:41:00,59.9,52.7,28.45,West,270,15.0,15.0,77,0.00,CLR,SKC,0.43,WeatherDisplay:10.37,2013-04-12 16:41:00,
2013-04-12 12:46:00,59.9,52.3,28.45,South,180,12.7,12.7,76,0.00,CLR,SKC,0.43,WeatherDisplay:10.37,2013-04-12 16:46:00,
2013-04-12 12:51:00,60.3,51.9,28.45,South,180,16.1,16.1,74,0.00,CLR,SKC,0.43,WeatherDisplay:10.37,2013-04-12 16:51:00,
2013-04-12 12:56:00,60.4,51.7,28.45,North,8,17.3,17.3,73,0.00,CLR,SKC,0.43,WeatherDisplay:10.37,2013-04-12 16:56:00,
2013-04-12 13:01:00,60.1,51.8,28.46,North,8,15.0,15.0,74,0.00,CLR,SKC,0.43,WeatherDisplay:10.37,2013-04-12 17:01:00,
2013-04-12 13:06:00,59.5,52.3,28.46,North,8,8.1,8.1,77,0.00,CLR,SKC,0.43,WeatherDisplay:10.37,2013-04-12 17:06:00,
2013-04-12 13:11:00,59.0,52.1,28.46,East,90,17.3,17.3,78,0.00,CLR,SKC,0.43,WeatherDisplay:10.37,2013-04-12 17:11:00,
2013-04-12 13:16:00,58.8,52.3,28.46,SSE,158,10.4,10.4,79,0.00,CLR,SKC,0.43,WeatherDisplay:10.37,2013-04-12 17:16:00,
2013-04-12 13:21:00,59.9,53.0,28.46,North,0,9.2,9.2,78,0.00,CLR,SKC,0.43,WeatherDisplay:10.37,2013-04-12 17:21:00,
2013-04-12 13:26:00,60.6,52.6,28.47,South,180,8.1,8.1,75,0.00,CLR,SKC,0.43,WeatherDisplay:10.37,2013-04-12 17:26:00,
2013-04-12 13:31:00,60.8,52.8,28.46,SE,135,6.9,6.9,75,0.00,CLR,SKC,0.43,WeatherDisplay:10.37,2013-04-12 17:31:00,
2013-04-12 13:36:00,61.7,53.0,28.46,East,90,5.8,5.8,73,0.00,CLR,SKC,0.43,WeatherDisplay:10.37,2013-04-12 17:36:00,
2013-04-12 13:41:00,62.6,52.3,28.46,North,0,10.4,10.4,69,0.00,CLR,SKC,0.43,WeatherDisplay:10.37,2013-04-12 17:41:00,
2013-04-12 13:46:00,63.0,52.6,28.46,South,180,8.1,8.1,69,0.00,CLR,SKC,0.43,WeatherDisplay:10.37,2013-04-12 17:46:00,
2013-04-12 13:51:00,64.0,50.8,28.45,SE,135,24.2,24.2,62,0.00,CLR,SKC,0.43,WeatherDisplay:10.37,2013-04-12 17:51:00,
2013-04-12 13:57:00,64.0,50.8,28.45,West,270,9.2,9.2,62,0.00,CLR,SKC,0.43,WeatherDisplay:10.37,2013-04-12 17:57:00,
2013-04-12 14:02:00,64.0,51.2,28.45,East,90,13.8,13.8,63,0.00,CLR,SKC,0.43,WeatherDisplay:10.37,2013-04-12 18:02:00,
2013-04-12 14:07:00,64.9,51.6,28.45,South,180,10.4,10.4,62,0.00,CLR,SKC,0.43,WeatherDisplay:10.37,2013-04-12 18:07:00,
2013-04-12 14:12:00,66.2,51.4,28.45,West,270,10.4,10.4,59,0.00,CLR,SKC,0.43,WeatherDisplay:10.37,2013-04-12 18:12:00,
2013-04-12 14:19:00,66.4,51.2,28.45,NE,45,8.1,8.1,58,0.00,CLR,SKC,0.43,WeatherDisplay:10.37,2013-04-12 18:19:00,
2013-04-12 14:24:00,64.9,50.7,28.45,NW,315,10.4,10.4,60,0.00,CLR,SKC,0.43,WeatherDisplay:10.37,2013-04-12 18:24:00,
2013-04-12 14:29:00,64.9,52.0,28.46,West,270,11.5,11.5,63,0.00,CLR,SKC,0.43,WeatherDisplay:10.37,2013-04-12 18:29:00,
2013-04-12 15:26:00,66.0,51.7,28.45,South,180,12.7,12.7,60,0.00,CLR,SKC,0.43,WeatherDisplay:10.37,2013-04-12 19:26:00,
2013-04-12 15:27:00,66.0,51.7,28.45,South,180,13.0,13.0,60,0.00,CLR,SKC,0.43,WeatherDisplay:10.37,2013-04-12 19:27:00,
2013-04-12 15:29:00,66.2,52.8,28.45,SSE,158,8.1,9.2,62,0.00,CLR,SKC,0.43,WeatherDisplay:10.37,2013-04-12 19:29:00,
2013-04-12 15:34:00,64.4,52.0,28.45,North,8,11.5,11.5,64,0.00,CLR,SKC,0.43,WeatherDisplay:10.37,2013-04-12 19:34:00,
2013-04-12 15:39:00,64.4,52.8,28.45,South,180,17.3,17.3,66,0.00,CLR,SKC,0.43,WeatherDisplay:10.37,2013-04-12 19:39:00,
2013-04-12 15:44:00,64.6,53.0,28.45,North,0,13.8,13.8,66,0.00,CLR,SKC,0.43,WeatherDisplay:10.37,2013-04-12 19:44:00,
2013-04-12 15:49:00,63.1,52.4,28.46,NNE,12,17.3,17.3,68,0.00,CLR,SKC,0.43,WeatherDisplay:10.37,2013-04-12 19:49:00,
2013-04-12 15:54:00,62.4,51.7,28.46,South,180,12.7,12.7,68,0.00,CLR,SKC,0.43,WeatherDisplay:10.37,2013-04-12 19:54:00,
2013-04-12 15:59:00,63.3,52.6,28.46,West,270,13.8,13.8,68,0.00,CLR,SKC,0.43,WeatherDisplay:10.37,2013-04-12 19:59:00,
2013-04-12 16:04:00,62.8,52.1,28.46,North,8,15.0,15.0,68,0.00,CLR,SKC,0.43,WeatherDisplay:10.37,2013-04-12 20:04:00,
2013-04-12 16:09:00,63.7,52.5,28.46,South,180,8.1,8.1,67,0.00,CLR,SKC,0.43,WeatherDisplay:10.37,2013-04-12 20:09:00,
2013-04-12 16:14:00,63.9,51.9,28.46,South,180,11.5,11.5,65,0.00,CLR,SKC,0.43,WeatherDisplay:10.37,2013-04-12 20:14:00,
2013-04-12 16:19:00,63.3,51.3,28.46,NW,315,15.0,15.0,65,0.00,CLR,SKC,0.43,WeatherDisplay:10.37,2013-04-12 20:19:00,
2013-04-12 16:24:00,63.1,51.6,28.46,SE,135,11.5,11.5,66,0.00,CLR,SKC,0.43,WeatherDisplay:10.37,2013-04-12 20:24:00,
2013-04-12 16:29:00,63.3,51.8,28.46,East,90,10.4,10.4,66,0.00,CLR,SKC,0.43,WeatherDisplay:10.37,2013-04-12 20:29:00,
2013-04-12 16:34:00,63.7,50.4,28.46,NNE,14,13.8,13.8,62,0.00,CLR,SKC,0.43,WeatherDisplay:10.37,2013-04-12 20:34:00,
2013-04-12 16:39:00,62.8,49.1,28.46,West,270,18.4,18.4,61,0.00,CLR,SKC,0.43,WeatherDisplay:10.37,2013-04-12 20:39:00,
2013-04-12 16:44:00,62.8,49.1,28.47,West,270,18.4,18.4,61,0.00,CLR,SKC,0.43,WeatherDisplay:10.37,2013-04-12 20:44:00,
2013-04-12 16:49:00,62.8,51.2,28.46,South,180,6.9,6.9,66,0.00,CLR,SKC,0.43,WeatherDisplay:10.37,2013-04-12 20:49:00,
2013-04-12 16:54:00,62.8,50.4,28.46,South,180,17.3,17.3,64,0.00,CLR,SKC,0.43,WeatherDisplay:10.37,2013-04-12 20:54:00,
2013-04-12 16:59:00,61.7,50.2,28.47,South,180,15.0,15.0,66,0.00,CLR,SKC,0.43,WeatherDisplay:10.37,2013-04-12 20:59:00,
2013-04-12 17:04:00,61.7,51.0,28.47,South,180,10.4,10.4,68,0.00,CLR,SKC,0.43,WeatherDisplay:10.37,2013-04-12 21:04:00,
2013-04-12 17:09:00,61.2,49.7,28.48,North,8,13.8,13.8,66,0.00,CLR,SKC,0.43,WeatherDisplay:10.37,2013-04-12 21:09:00,
2013-04-12 17:14:00,61.5,50.1,28.48,NW,315,8.1,8.1,66,0.00,CLR,SKC,0.43,WeatherDisplay:10.37,2013-04-12 21:14:00,
2013-04-12 17:19:00,61.9,50.0,28.48,South,180,12.7,12.7,65,0.00,CLR,SKC,0.43,WeatherDisplay:10.37,2013-04-12 21:19:00,
2013-04-12 17:24:00,61.5,49.2,28.48,West,270,15.0,15.0,64,0.00,CLR,SKC,0.43,WeatherDisplay:10.37,2013-04-12 21:24:00,
2013-04-12 17:29:00,60.4,48.2,28.49,South,180,17.3,17.3,64,0.00,CLR,SKC,0.43,WeatherDisplay:10.37,2013-04-12 21:29:00,
2013-04-12 17:34:00,60.4,48.6,28.49,South,180,15.0,15.0,65,0.00,CLR,SKC,0.43,WeatherDisplay:10.37,2013-04-12 21:34:00,
2013-04-12 17:39:00,61.3,48.6,28.49,South,180,17.3,17.3,63,0.00,CLR,SKC,0.43,WeatherDisplay:10.37,2013-04-12 21:39:00,
2013-04-12 17:44:00,61.0,48.3,28.49,NNE,12,16.1,16.1,63,0.00,CLR,SKC,0.43,WeatherDisplay:10.37,2013-04-12 21:44:00,
2013-04-12 17:49:00,59.9,48.1,28.50,South,180,10.7,10.7,65,0.00,CLR,SKC,0.43,WeatherDisplay:10.37,2013-04-12 21:49:00,
2013-04-12 17:54:00,59.9,47.7,28.50,South,180,16.1,16.1,64,0.00,CLR,SKC,0.43,WeatherDisplay:10.37,2013-04-12 21:54:00,
2013-04-12 17:59:00,59.7,47.5,28.51,North,8,19.6,19.6,64,0.00,CLR,SKC,0.43,WeatherDisplay:10.37,2013-04-12 21:59:00,
2013-04-12 18:04:00,59.4,47.2,28.51,South,180,13.8,13.8,64,0.00,CLR,SKC,0.43,WeatherDisplay:10.37,2013-04-12 22:04:00,
2013-04-12 18:09:00,59.4,47.2,28.51,NW,315,13.8,13.8,64,0.00,CLR,SKC,0.43,WeatherDisplay:10.37,2013-04-12 22:09:00,
2013-04-12 18:14:00,58.3,47.0,28.52,NNE,12,20.7,20.7,66,0.00,CLR,SKC,0.43,WeatherDisplay:10.37,2013-04-12 22:14:00,
2013-04-12 18:19:00,57.6,47.1,28.52,West,270,16.1,16.1,68,0.00,CLR,SKC,0.43,WeatherDisplay:10.37,2013-04-12 22:19:00,
2013-04-12 18:24:00,56.8,46.8,28.53,South,180,18.4,18.4,69,0.00,CLR,SKC,0.43,WeatherDisplay:10.37,2013-04-12 22:24:00,
2013-04-12 18:29:00,55.9,46.3,28.53,NNE,15,20.7,20.7,70,0.00,CLR,SKC,0.43,WeatherDisplay:10.37,2013-04-12 22:29:00,
2013-04-12 18:34:00,54.5,45.7,28.54,West,270,23.0,23.0,72,0.00,CLR,SKC,0.43,WeatherDisplay:10.37,2013-04-12 22:34:00,
2013-04-12 18:39:00,52.9,44.8,28.56,West,270,23.0,23.0,74,0.00,CLR,SKC,0.44,WeatherDisplay:10.37,2013-04-12 22:39:00,
2013-04-12 18:44:00,51.8,44.5,28.56,South,180,21.9,21.9,76,0.01,RA,SKC,0.44,WeatherDisplay:10.37,2013-04-12 22:44:00,
2013-04-12 18:49:00,50.9,43.9,28.56,WNW,292,24.2,24.2,77,0.01,RA,SKC,0.44,WeatherDisplay:10.37,2013-04-12 22:49:00,
2013-04-12 18:54:00,50.2,43.2,28.57,NNE,13,26.5,26.5,77,0.01,CLR,SKC,0.44,WeatherDisplay:10.37,2013-04-12 22:54:00,
2013-04-12 18:59:00,50.4,43.4,28.58,North,10,24.2,24.2,77,0.01,CLR,SKC,0.44,WeatherDisplay:10.37,2013-04-12 22:59:00,
2013-04-12 19:04:00,50.2,42.9,28.58,NNW,338,19.6,19.6,76,0.01,CLR,SKC,0.44,WeatherDisplay:10.37,2013-04-12 23:04:00,
2013-04-12 19:09:00,49.6,42.4,28.59,West,270,15.0,15.0,76,0.01,CLR,SKC,0.44,WeatherDisplay:10.37,2013-04-12 23:09:00,
2013-04-12 19:14:00,49.1,41.5,28.59,North,7,25.3,25.3,75,0.01,CLR,SKC,0.44,WeatherDisplay:10.37,2013-04-12 23:14:00,
2013-04-12 19:19:00,48.4,40.5,28.59,South,180,20.7,20.7,74,0.01,CLR,SKC,0.44,WeatherDisplay:10.37,2013-04-12 23:19:00,
2013-04-12 19:24:00,48.0,40.1,28.60,West,270,15.0,15.0,74,0.01,CLR,SKC,0.44,WeatherDisplay:10.37,2013-04-12 23:24:00,
2013-04-12 19:29:00,47.7,39.8,28.60,NNE,14,21.9,21.9,74,0.01,CLR,SKC,0.44,WeatherDisplay:10.37,2013-04-12 23:29:00,
2013-04-12 19:34:00,47.7,39.8,28.61,South,180,12.7,12.7,74,0.01,CLR,SKC,0.44,WeatherDisplay:10.37,2013-04-12 23:34:00,
2013-04-12 19:39:00,47.3,38.7,28.61,South,180,23.0,23.0,72,0.01,CLR,SKC,0.44,WeatherDisplay:10.37,2013-04-12 23:39:00,
2013-04-12 19:44:00,47.3,39.1,28.61,West,270,21.9,21.9,73,0.00,CLR,SKC,0.44,WeatherDisplay:10.37,2013-04-12 23:44:00,
2013-04-12 19:49:00,47.1,38.2,28.61,NNE,12,27.6,27.6,71,0.00,CLR,SKC,0.44,WeatherDisplay:10.37,2013-04-12 23:49:00,
2013-04-12 19:54:00,46.9,37.7,28.61,West,270,20.7,20.7,70,0.00,CLR,SKC,0.44,WeatherDisplay:10.37,2013-04-12 23:54:00,
2013-04-12 19:59:00,46.8,37.5,28.61,NNE,15,20.7,20.7,70,0.00,CLR,SKC,0.44,WeatherDisplay:10.37,2013-04-12 23:59:00,
2013-04-12 20:04:00,46.8,37.1,28.61,NNE,12,20.7,20.7,69,0.00,CLR,SKC,0.44,WeatherDisplay:10.37,2013-04-13 00:04:00,
2013-04-12 20:09:00,46.8,37.5,28.61,West,270,11.5,11.5,70,0.00,CLR,SKC,0.44,WeatherDisplay:10.37,2013-04-13 00:09:00,
2013-04-12 20:14:00,46.8,37.1,28.61,West,270,18.4,18.4,69,0.00,CLR,SKC,0.44,WeatherDisplay:10.37,2013-04-13 00:14:00,
2013-04-12 20:19:00,46.8,36.8,28.62,South,180,19.6,19.6,68,0.00,CLR,SKC,0.44,WeatherDisplay:10.37,2013-04-13 00:19:00,
2013-04-12 20:24:00,46.6,37.0,28.62,South,180,12.7,12.7,69,0.00,CLR,SKC,0.44,WeatherDisplay:10.37,2013-04-13 00:24:00,
2013-04-12 20:29:00,46.6,37.0,28.63,NNE,15,17.3,17.3,69,0.00,CLR,SKC,0.44,WeatherDisplay:10.37,2013-04-13 00:29:00,
2013-04-12 20:34:00,46.6,37.0,28.63,North,0,10.4,10.4,69,0.00,CLR,SKC,0.44,WeatherDisplay:10.37,2013-04-13 00:34:00,
2013-04-12 20:39:00,46.6,37.0,28.63,South,180,13.8,13.8,69,0.00,CLR,SKC,0.44,WeatherDisplay:10.37,2013-04-13 00:39:00,
2013-04-12 20:44:00,46.4,37.1,28.63,South,180,13.8,13.8,70,0.00,CLR,SKC,0.44,WeatherDisplay:10.37,2013-04-13 00:44:00,
2013-04-12 20:49:00,46.4,37.1,28.64,West,270,11.5,11.5,70,0.00,CLR,SKC,0.44,WeatherDisplay:10.37,2013-04-13 00:49:00,
2013-04-12 20:54:00,46.4,37.1,28.64,West,270,12.7,12.7,70,0.00,CLR,SKC,0.44,WeatherDisplay:10.37,2013-04-13 00:54:00,
2013-04-12 20:59:00,46.2,37.3,28.64,South,180,12.7,12.7,71,0.00,CLR,SKC,0.44,WeatherDisplay:10.37,2013-04-13 00:59:00,
2013-04-12 21:04:00,46.2,37.3,28.64,North,8,8.1,8.1,71,0.00,CLR,SKC,0.44,WeatherDisplay:10.37,2013-04-13 01:04:00,
2013-04-12 21:09:00,46.0,37.5,28.64,West,270,5.8,5.8,72,0.00,CLR,SKC,0.44,WeatherDisplay:10.37,2013-04-13 01:09:00,
2013-04-12 21:14:00,46.0,37.5,28.65,South,180,5.8,5.8,72,0.00,CLR,SKC,0.44,WeatherDisplay:10.37,2013-04-13 01:14:00,
2013-04-12 21:19:00,45.9,37.7,28.65,South,180,8.1,8.1,73,0.00,CLR,SKC,0.44,WeatherDisplay:10.37,2013-04-13 01:19:00,
2013-04-12 21:24:00,45.9,37.3,28.65,South,180,11.5,11.5,72,0.00,CLR,SKC,0.44,WeatherDisplay:10.37,2013-04-13 01:24:00,
2013-04-12 21:29:00,46.0,37.9,28.65,North,8,15.0,15.0,73,0.00,CLR,SKC,0.44,WeatherDisplay:10.37,2013-04-13 01:29:00,
2013-04-12 21:34:00,46.0,37.5,28.66,North,0,15.0,15.0,72,0.00,CLR,SKC,0.44,WeatherDisplay:10.37,2013-04-13 01:34:00,
2013-04-12 21:39:00,46.0,37.9,28.66,NNE,12,12.7,12.7,73,0.00,CLR,SKC,0.44,WeatherDisplay:10.37,2013-04-13 01:39:00,
2013-04-12 21:44:00,46.0,37.9,28.67,South,180,13.7,13.7,73,0.00,CLR,SKC,0.44,WeatherDisplay:10.37,2013-04-13 01:44:00,
2013-04-12 21:49:00,45.9,37.7,28.67,NE,45,5.8,5.8,73,0.00,CLR,SKC,0.44,WeatherDisplay:10.37,2013-04-13 01:49:00,
2013-04-12 21:54:00,45.9,37.7,28.67,West,270,6.9,6.9,73,0.00,CLR,SKC,0.44,WeatherDisplay:10.37,2013-04-13 01:54:00,
2013-04-12 21:59:00,45.9,37.7,28.67,South,180,10.4,10.4,73,0.00,CLR,SKC,0.44,WeatherDisplay:10.37,2013-04-13 01:59:00,
2013-04-12 22:04:00,45.9,37.7,28.67,South,180,17.3,17.3,73,0.00,CLR,SKC,0.44,WeatherDisplay:10.37,2013-04-13 02:04:00,
2013-04-12 22:09:00,45.7,37.5,28.67,South,180,17.3,17.3,73,0.00,CLR,SKC,0.44,WeatherDisplay:10.37,2013-04-13 02:09:00,
2013-04-12 22:14:00,45.7,37.9,28.67,South,180,8.1,8.1,74,0.00,CLR,SKC,0.44,WeatherDisplay:10.37,2013-04-13 02:14:00,
2013-04-12 22:19:00,45.5,37.3,28.67,South,180,8.1,8.1,73,0.00,CLR,SKC,0.44,WeatherDisplay:10.37,2013-04-13 02:19:00,
2013-04-12 22:24:00,45.5,37.7,28.67,South,180,4.6,4.6,74,0.00,CLR,SKC,0.44,WeatherDisplay:10.37,2013-04-13 02:24:00,
2013-04-12 22:29:00,45.3,37.5,28.67,South,180,12.7,12.7,74,0.00,CLR,SKC,0.44,WeatherDisplay:10.37,2013-04-13 02:29:00,
2013-04-12 22:34:00,45.1,37.3,28.67,South,180,8.1,8.1,74,0.00,CLR,SKC,0.44,WeatherDisplay:10.37,2013-04-13 02:34:00,
2013-04-12 22:39:00,45.3,37.5,28.67,West,270,4.5,4.5,74,0.00,CLR,SKC,0.44,WeatherDisplay:10.37,2013-04-13 02:39:00,
2013-04-12 22:44:00,45.1,37.7,28.67,West,270,4.6,4.6,75,0.00,CLR,SKC,0.44,WeatherDisplay:10.37,2013-04-13 02:44:00,
2013-04-12 22:49:00,45.1,37.7,28.67,South,180,5.8,5.8,75,0.00,CLR,SKC,0.44,WeatherDisplay:10.37,2013-04-13 02:49:00,
2013-04-12 22:55:00,45.1,37.7,28.67,South,180,5.8,5.8,75,0.00,CLR,SKC,0.44,WeatherDisplay:10.37,2013-04-13 02:55:00,
2013-04-12 23:00:00,45.1,37.7,28.67,North,7,5.8,5.8,75,0.00,CLR,SKC,0.44,WeatherDisplay:10.37,2013-04-13 03:00:00,
2013-04-12 23:05:00,45.1,37.7,28.67,North,0,4.6,4.6,75,0.00,CLR,SKC,0.44,WeatherDisplay:10.37,2013-04-13 03:05:00,
2013-04-12 23:10:00,45.0,37.8,28.67,South,180,8.1,8.1,76,0.00,CLR,SKC,0.44,WeatherDisplay:10.37,2013-04-13 03:10:00,
2013-04-12 23:15:00,45.0,37.8,28.67,NW,315,8.1,8.1,76,0.00,CLR,SKC,0.44,WeatherDisplay:10.37,2013-04-13 03:15:00,
2013-04-12 23:20:00,45.0,37.8,28.67,South,180,6.9,6.9,76,0.00,CLR,SKC,0.44,WeatherDisplay:10.37,2013-04-13 03:20:00,
2013-04-12 23:26:00,45.0,37.8,28.67,South,180,8.1,8.1,76,0.00,CLR,SKC,0.44,WeatherDisplay:10.37,2013-04-13 03:26:00,
2013-04-12 23:31:00,45.0,38.2,28.67,South,180,5.8,5.8,77,0.00,CLR,SKC,0.44,WeatherDisplay:10.37,2013-04-13 03:31:00,
2013-04-12 23:36:00,45.0,38.2,28.67,South,180,5.8,5.8,77,0.00,CLR,SKC,0.44,WeatherDisplay:10.37,2013-04-13 03:36:00,
2013-04-12 23:41:00,45.0,38.2,28.67,North,7,12.1,12.1,77,0.00,CLR,SKC,0.44,WeatherDisplay:10.37,2013-04-13 03:41:00,
2013-04-12 23:46:00,45.0,38.2,28.67,South,180,8.1,8.1,77,0.00,CLR,SKC,0.44,WeatherDisplay:10.37,2013-04-13 03:46:00,
2013-04-12 23:51:00,45.0,38.2,28.66,SE,135,10.4,10.4,77,0.00,CLR,SKC,0.44,WeatherDisplay:10.37,2013-04-13 03:51:00,
2013-04-12 23:56:00,44.8,38.0,28.66,South,180,10.4,10.4,77,0.00,CLR,SKC,0.44,WeatherDisplay:10.37,2013-04-13 03:56:00,